SCP
0 0 0 0 0 0 0 0 0 0 0 0 0 0 0 0 0 0 0 0 0 0 0 0 0 0 0 0 0 0 0 0 0 0 0 0 0 0 0 0 0 0 0
0 0 0 0 0 0 0 0 0 0 0 0 0 0 0 0 0 0 0 0 0 0 0 0 0 0 0 0 0 0 0 0 0 0 0 0 0 0 0 0 0 0 0
-0 -0 -0 -0 0 0 0 0 0 0 0 0 0 0 0 0 0 0 0 0 0 0 0 0 0 0 0 0 0 0 0 0 0 0 0 0 0 0 0 0 0 0 0
-0 -0 -0 -0 0 0 0 0 0 0 0 0 0 0 0 0 0 0 0 0 0 0 0 0 0 0 0 0 0 0 0 0 0 0 0 0 0 0 0 0 0 0 0
-0 -0 -0 -0 0 0 0 0 0 0 0 0 0 0 0 0 0 0 0 0 0 0 0 0 0 0 0 0 0 0 0 0 0 0 0 0 0 0 0 0 0 0 0
-0 -0 -0 -0 -0 0 0 0 0 0 0 0 0 0 0 0 0 0 0 0 0 0 0 0 0 0 0 0 0 0 0 0 0 0 0 0 0 0 0 0 0 0 0
0 -0 0 0 0 0 0 0 0 0 0 0 0 0 0 0 0 0 0 0 0 0 0 0 0 0 0 0 0 0 0 0 0 0 0 0 0 0 0 0 0 0 0
0 -0 0 0 0 0 0 0 0 0 0 0 0 0 0 0 0 0 0 0 0 0 0 0 0 0 0 0 0 0 0 0 0 0 0 0 0 0 0 0 0 0 0
0 0 0 0 0 0 0 0 0 0 0 0 0 0 0 0 0 0 0 0 0 0 0 0 0 0 0 0 0 0 0 0 0 0 0 0 0 0 0 0 0 0 0
0 0 0 0 0 0 0 0 0 0 0 0 0 0 0 0 0 0 0 0 0 0 0 0 0 0 0 0 0 0 0 0 0 0 0 0 0 0 0 0 0 0 0
0 0 0 0 0 0 0 0 0 0 0 0 0 0 0 0 0 0 0 0 0 0 0 0 0 0 0 0 0 0 0 0 0 0 0 0 0 0 0 0 0 0 0
0 0 0 0 0 0 0 0 0 0 0 0 0 0 0 0 0 0 0 0 0 0 0 0 0 0 0 0 0 0 0 0 0 0 0 0 0 0 0 0 0 0 0
0 0 0 0 0 0 0 0 0 0 0 0 0 0 0 0 0 0 0 0 0 0 0 0 0 0 0 0 0 0 0 0 0 0 0 0 0 0 -0 -0 0 0 0
0 0 0 0 0 0 0 0 0 0 0 0 0 0 0 0 0 0 0 0 0 0 0 0 0 0 0 0 0 0 0 0 0 0 0 0 0 0 0 -0 -0 0 0
0 0 0 0 0 0 0 0 0 0 0 0 0 0 0 0 0 0 0 0 0 0 0 0 0 0 0 0 0 0 0 0 0 0 0 0 0 0 0 -0 -0 0 0
0 0 0 0 0 0 0 0 0 0 0 0 0 0 0 0 0 0 0 0 0 0 0 0 0 0 0 -0 -0 0 0 0 0 0 0 0 0 0 0 -0 0 0 0
0 0 0 0 0 0 0 0 0 0 0 0 0 0 0 0 0 0 0 0 0 0 0 0 0 0 0 -0 -0 -0 0 0 0 0 0 0 0 0 0 0 -0 -0 0
0 0 0 0 0 0 0 0 0 0 0 0 0 0 0 0 0 0 0 0 0 0 0 0 0 0 0 -0 -0 0 0 0 0 0 0 0 0 0 0 0 0 0 0
0 0 0 0 0 0 0 0 0 0 0 0 0 0 0 0 0 0 0 0 0 0 0 0 -0 0 0 -0 -0 0 0 0 -0 -0 0 0 0 0 0 0 0 0 0
0 0 0 0 0 0 0 0 0 0 0 0 0 0 0 0 0 0 0 0 0 0 0 -0 0 -0 -0 -0 0 0 0 0 0 0 0 -0 0 0 -0 -0 0 0 0
0 0 0 0 0 0 0 0 0 0 0 0 0 0 0 0 0 0 0 0 0 -0 0 0 -0 -0 0 0 0 0 0 0 0 0 0 0 0 0 0 0 0 0 0
0 0 0 0 0 0 0 0 0 0 0 0 0 0 0 0 0 0 0 -0 -0 0 0 0 0 0 0 0 0 0 -0 0 0 0 0 0 0 0 0 0 0 0 0
0 0 0 0 0 0 0 0 0 0 0 0 0 0 0 0 0 0 0 0 0 0 0 0 0 0 0 0 0 0 0 0 0 0 0 0 0 0 0 0 0 0 0
0 0 0 0 0 0 0 0 0 0 0 0 0 0 0 0 0 0 0 0 0 0 0 0 0 0 0 0 0 0 0 0 0 0 0 0 0 0 0 0 0 0 0
0 0 0 0 0 0 0 0 0 0 0 0 0 0 0 0 0 0 0 0 0 0 0 0 0 0 0 0 0 0 0 0 0 0 0 0 0 0 0 0 0 0 0
0 0 0 0 0 0 0 0 0 0 0 0 0 0 0 0 0 0 0 0 0 0 0 0 0 0 0 0 0 0 0 0 0 0 0 0 0 0 0 0 0 0 0
Wind_Speed_500mb
58 57 42 28 29 29 30 33 33 28 30 29 28 34 39 39 42 49 52 58 63 60 51 51 56 57 53 50 48 47 44 42 40 39 36 39 52 55 46 37 34 35 32
58 60 54 43 37 30 31 34 34 33 32 33 35 41 39 39 49 53 57 60 61 55 55 60 62 54 52 49 40 38 35 30 26 30 38 41 51 38 10 15 14 16 21
54 53 57 48 40 33 34 37 32 33 36 41 42 45 40 47 53 59 60 58 55 52 56 63 58 52 54 50 37 36 34 37 39 42 35 28 29 38 22 18 17 19 15
41 43 50 47 40 36 35 36 37 43 45 50 46 42 48 52 58 61 61 57 51 54 61 57 56 54 54 50 36 34 35 35 34 32 30 37 27 18 18 17 19 11 13
34 37 40 42 41 39 41 39 48 43 48 48 41 47 49 52 59 61 61 56 55 59 58 50 51 47 54 49 37 35 35 35 34 29 25 27 28 31 30 27 18 17 19
32 36 35 36 36 40 48 43 42 47 39 37 44 47 49 55 61 61 59 58 61 60 53 57 52 54 50 46 32 36 38 29 34 34 34 36 35 34 32 29 26 21 23
30 28 29 27 27 31 37 42 41 35 35 42 43 44 52 60 58 55 58 61 63 63 64 52 45 43 42 39 36 32 37 42 47 46 48 48 48 45 43 42 33 24 18
21 22 21 21 22 23 31 39 34 32 39 41 42 51 55 52 51 52 57 61 66 54 43 43 43 41 40 38 37 40 45 48 53 55 52 45 49 46 43 44 34 24 27
20 21 20 21 25 32 37 32 33 40 40 42 48 54 49 50 51 54 58 64 36 42 50 51 47 46 47 47 43 45 45 40 37 37 33 35 34 38 41 45 41 26 22
26 24 21 26 29 32 30 33 36 36 41 46 50 46 48 48 52 56 49 45 42 46 52 49 46 43 44 44 35 35 32 28 26 26 26 26 32 35 36 38 33 29 36
27 23 27 25 29 32 32 31 34 38 42 46 43 46 49 51 55 49 45 40 45 54 52 43 40 37 42 36 33 32 23 21 22 21 21 23 16 12 18 23 29 34 39
18 20 21 24 29 30 29 32 34 37 42 43 46 49 52 54 52 42 37 42 49 51 40 36 36 36 37 29 27 21 18 23 20 20 15 14 17 20 22 29 31 32 36
22 17 12 16 19 23 29 30 32 35 40 44 48 52 55 57 42 34 41 45 55 42 35 36 36 35 30 24 20 18 20 8 16 11 11 15 20 21 24 27 27 30 37
17 14 12 18 22 27 32 33 33 36 41 44 48 54 59 45 31 34 42 51 45 35 33 32 32 28 26 20 13 14 6 8 10 12 14 20 20 26 25 30 27 32 42
23 13 16 24 29 32 33 32 33 36 42 44 50 57 52 34 32 37 43 49 36 33 30 29 24 22 23 18 8 8 6 7 11 11 11 12 15 8 13 27 30 41 53
25 20 27 32 37 40 34 34 33 38 41 45 55 56 41 30 34 40 50 41 35 28 24 24 20 16 17 11 4 3 5 8 7 11 17 16 24 25 24 40 36 44 44
26 32 40 43 46 41 37 32 34 39 42 52 57 46 32 31 38 45 44 38 31 23 23 21 15 11 12 8 4 4 9 11 10 14 25 25 16 24 44 39 32 35 39
29 39 49 56 55 46 37 34 34 37 46 54 49 35 27 35 40 45 39 35 27 21 19 15 8 10 9 7 9 12 15 15 15 13 19 25 31 36 31 34 35 41 38
42 47 54 60 54 46 40 31 32 41 49 50 39 27 30 37 46 38 41 29 25 14 8 6 9 10 13 14 16 12 13 14 18 16 15 22 24 28 28 29 31 32 34
33 40 45 45 46 46 37 29 33 40 50 42 30 28 36 44 36 41 34 19 15 7 8 7 9 10 11 11 10 10 16 16 15 15 18 20 22 24 24 22 31 38 33
38 36 40 41 45 42 32 27 33 47 45 34 26 32 40 31 37 35 24 21 12 6 9 8 13 15 14 17 15 18 17 21 18 23 25 26 25 23 22 21 26 38 37
42 47 51 51 41 33 26 26 36 43 37 27 27 34 30 34 37 29 23 21 14 11 14 12 18 18 19 21 19 23 24 20 23 28 28 27 25 22 23 27 30 38 40
51 51 50 47 40 27 21 26 38 38 30 24 30 32 25 36 32 31 27 21 16 18 12 14 21 21 20 17 20 20 15 18 19 26 32 32 28 33 39 37 36 39 44
57 52 50 45 31 21 18 30 34 32 25 27 30 21 23 28 32 30 29 25 22 15 18 17 18 19 20 17 21 20 18 18 22 29 33 33 39 40 40 37 32 34 38
54 49 48 39 20 13 20 28 31 25 23 26 20 20 18 22 26 28 29 29 24 15 12 15 17 18 20 20 17 17 17 19 28 32 32 32 35 36 34 35 31 35 39
51 51 44 27 11 12 21 24 27 19 23 20 15 21 17 19 21 19 22 22 21 18 20 18 15 12 11 14 15 17 19 22 29 30 31 32 30 32 33 32 30 32 34
Wind_Direction_500mb
213 217 223 262 273 258 239 233 231 237 249 266 294 311 315 309 314 316 318 320 322 325 320 317 316 314 309 306 298 292 295 290 283 280 281 285 294 296 297 275 265 253 248
227 224 233 254 265 262 245 238 245 249 261 283 296 307 302 306 315 317 316 318 322 321 318 317 317 316 314 312 300 289 291 291 278 275 282 303 304 314 261 303 223 194 208
242 239 234 252 261 265 247 248 252 261 273 281 290 298 299 303 309 309 311 317 318 316 315 317 317 318 319 317 298 285 281 279 277 280 276 295 290 299 315 267 244 249 240
242 243 242 248 260 267 257 255 260 266 270 278 289 289 298 304 309 310 316 318 314 314 316 317 316 321 322 317 308 288 275 279 280 278 280 279 266 290 305 316 221 271 233
239 242 245 252 258 262 262 266 262 267 273 283 282 293 299 307 307 312 314 312 309 309 314 313 311 308 314 306 296 280 270 271 268 266 270 269 270 267 268 282 303 246 229
233 240 243 252 256 256 252 270 268 268 277 277 292 300 304 306 309 310 305 304 308 309 307 307 308 315 315 300 293 279 271 264 275 276 274 271 266 267 265 257 269 264 258
227 240 245 254 260 262 261 260 268 270 276 288 296 301 303 307 310 304 305 310 311 314 315 317 321 324 319 309 293 283 277 278 275 275 273 271 269 261 255 259 258 258 239
231 239 244 250 259 262 261 266 266 277 287 294 296 299 307 313 309 305 311 313 316 321 332 326 322 315 309 307 299 291 281 280 280 276 274 270 265 255 244 244 255 253 239
222 234 242 249 249 263 265 263 270 280 287 292 300 309 315 315 310 316 316 317 324 325 322 318 311 306 306 307 297 289 291 295 282 276 274 273 269 254 244 241 241 237 231
227 234 237 242 253 259 260 267 277 287 296 304 310 316 320 316 319 319 317 328 325 317 318 314 311 309 314 315 311 305 299 295 291 286 281 280 263 254 244 240 233 229 223
229 237 236 246 251 259 269 280 288 297 305 312 319 324 324 323 321 318 321 316 315 317 317 318 320 319 322 318 308 309 302 294 292 287 283 278 259 252 247 235 240 225 220
229 232 239 250 257 274 275 284 295 308 315 320 323 327 326 323 323 318 316 313 315 320 322 323 325 330 325 323 320 312 314 304 293 277 284 269 256 252 246 242 233 229 217
231 218 223 265 278 283 280 290 297 311 319 321 325 327 324 324 320 320 317 315 320 317 320 325 326 334 322 322 324 308 311 310 290 305 302 292 279 262 247 239 243 222 202
217 202 268 282 281 278 278 283 298 311 317 321 323 323 323 322 321 323 320 318 321 322 327 326 327 333 322 321 313 332 320 310 315 322 316 315 290 276 248 229 206 202 183
211 241 282 288 284 278 277 286 299 311 315 319 322 323 325 322 317 315 317 322 321 321 327 328 328 334 338 328 322 342 24 357 348 353 352 349 5 160 88 156 175 193 170
227 275 298 288 290 280 277 282 298 311 316 322 324 325 327 321 315 316 324 325 328 326 329 329 330 350 340 358 15 84 6 17 9 9 40 92 102 72 41 139 175 179 158
259 287 299 294 293 286 280 289 305 312 319 323 325 326 327 319 317 324 327 327 332 332 338 335 339 3 348 348 110 69 31 36 30 52 71 100 93 87 115 130 132 150 171
289 302 307 303 296 287 283 292 304 317 324 323 328 330 322 319 325 332 335 343 346 342 341 349 60 22 1 55 109 72 52 57 72 72 89 85 80 90 108 113 132 133 125
320 318 312 308 305 292 289 290 307 320 324 329 336 332 324 328 332 337 339 338 349 346 1 83 75 53 70 88 93 87 86 92 75 76 98 95 95 96 105 126 123 132 140
345 348 350 345 324 299 289 296 313 325 333 338 340 332 333 333 337 342 344 345 342 24 76 99 95 78 75 77 92 95 84 91 83 78 103 108 102 105 109 136 147 135 147
334 340 342 343 331 301 289 297 321 333 340 343 341 339 338 344 346 346 359 358 12 87 102 94 91 86 79 84 95 83 70 99 89 96 105 113 109 103 113 128 144 151 144
345 341 336 332 312 287 282 305 330 341 346 347 347 344 351 358 351 7 16 20 34 97 97 94 100 89 83 87 90 86 81 79 89 90 98 109 102 101 110 122 133 148 146
339 338 336 326 303 288 294 323 338 349 354 355 347 351 10 1 11 29 28 35 45 83 79 100 108 94 88 91 92 79 76 75 92 89 92 104 99 105 106 110 120 138 146
339 333 330 319 304 288 308 326 346 354 2 355 355 15 13 22 34 40 41 56 76 70 87 103 108 97 98 91 80 77 72 76 98 97 95 94 105 107 109 111 110 137 148
338 334 327 320 299 297 320 335 354 1 0 2 17 26 28 36 47 51 49 52 66 75 87 107 102 105 96 101 90 82 72 81 105 105 106 107 110 113 114 115 117 130 138
340 334 328 327 304 312 326 346 360 3 4 5 35 30 42 47 52 62 54 66 62 67 93 98 89 105 112 95 83 92 100 106 110 116 114 112 108 110 123 124 121 124 137
Wind_Speed_850mb
58 57 42 28 29 29 30 33 33 28 30 29 28 34 39 39 42 49 52 58 63 60 51 51 56 57 53 50 48 47 44 42 40 39 36 39 52 55 46 37 34 35 32
58 60 54 43 37 30 31 34 34 33 32 33 35 41 39 39 49 53 57 60 61 55 55 60 62 54 52 49 40 38 35 30 26 30 38 41 51 38 10 15 14 16 21
54 53 57 48 40 33 34 37 32 33 36 41 42 45 40 47 53 59 60 58 55 52 56 63 58 52 54 50 37 36 34 37 39 42 35 28 29 38 22 18 17 19 15
41 43 50 47 40 36 35 36 37 43 45 50 46 42 48 52 58 61 61 57 51 54 61 57 56 54 54 50 36 34 35 35 34 32 30 37 27 18 18 17 19 11 13
34 37 40 42 41 39 41 39 48 43 48 48 41 47 49 52 59 61 61 56 55 59 58 50 51 47 54 49 37 35 35 35 34 29 25 27 28 31 30 27 18 17 19
32 36 35 36 36 40 48 43 42 47 39 37 44 47 49 55 61 61 59 58 61 60 53 57 52 54 50 46 32 36 38 29 34 34 34 36 35 34 32 29 26 21 23
30 28 29 27 27 31 37 42 41 35 35 42 43 44 52 60 58 55 58 61 63 63 64 52 45 43 42 39 36 32 37 42 47 46 48 48 48 45 43 42 33 24 18
21 22 21 21 22 23 31 39 34 32 39 41 42 51 55 52 51 52 57 61 66 54 43 43 43 41 40 38 37 40 45 48 53 55 52 45 49 46 43 44 34 24 27
20 21 20 21 25 32 37 32 33 40 40 42 48 54 49 50 51 54 58 64 36 42 50 51 47 46 47 47 43 45 45 40 37 37 33 35 34 38 41 45 41 26 22
26 24 21 26 29 32 30 33 36 36 41 46 50 46 48 48 52 56 49 45 42 46 52 49 46 43 44 44 35 35 32 28 26 26 26 26 32 35 36 38 33 29 36
27 23 27 25 29 32 32 31 34 38 42 46 43 46 49 51 55 49 45 40 45 54 52 43 40 37 42 36 33 32 23 21 22 21 21 23 16 12 18 23 29 34 39
18 20 21 24 29 30 29 32 34 37 42 43 46 49 52 54 52 42 37 42 49 51 40 36 36 36 37 29 27 21 18 23 20 20 15 14 17 20 22 29 31 32 36
22 17 12 16 19 23 29 30 32 35 40 44 48 52 55 57 42 34 41 45 55 42 35 36 36 35 30 24 20 18 20 8 16 11 11 15 20 21 24 27 27 30 37
17 14 12 18 22 27 32 33 33 36 41 44 48 54 59 45 31 34 42 51 45 35 33 32 32 28 26 20 13 14 6 8 10 12 14 20 20 26 25 30 27 32 42
23 13 16 24 29 32 33 32 33 36 42 44 50 57 52 34 32 37 43 49 36 33 30 29 24 22 23 18 8 8 6 7 11 11 11 12 15 8 13 27 30 41 53
25 20 27 32 37 40 34 34 33 38 41 45 55 56 41 30 34 40 50 41 35 28 24 24 20 16 17 11 4 3 5 8 7 11 17 16 24 25 24 40 36 44 44
26 32 40 43 46 41 37 32 34 39 42 52 57 46 32 31 38 45 44 38 31 23 23 21 15 11 12 8 4 4 9 11 10 14 25 25 16 24 44 39 32 35 39
29 39 49 56 55 46 37 34 34 37 46 54 49 35 27 35 40 45 39 35 27 21 19 15 8 10 9 7 9 12 15 15 15 13 19 25 31 36 31 34 35 41 38
42 47 54 60 54 46 40 31 32 41 49 50 39 27 30 37 46 38 41 29 25 14 8 6 9 10 13 14 16 12 13 14 18 16 15 22 24 28 28 29 31 32 34
33 40 45 45 46 46 37 29 33 40 50 42 30 28 36 44 36 41 34 19 15 7 8 7 9 10 11 11 10 10 16 16 15 15 18 20 22 24 24 22 31 38 33
38 36 40 41 45 42 32 27 33 47 45 34 26 32 40 31 37 35 24 21 12 6 9 8 13 15 14 17 15 18 17 21 18 23 25 26 25 23 22 21 26 38 37
42 47 51 51 41 33 26 26 36 43 37 27 27 34 30 34 37 29 23 21 14 11 14 12 18 18 19 21 19 23 24 20 23 28 28 27 25 22 23 27 30 38 40
51 51 50 47 40 27 21 26 38 38 30 24 30 32 25 36 32 31 27 21 16 18 12 14 21 21 20 17 20 20 15 18 19 26 32 32 28 33 39 37 36 39 44
57 52 50 45 31 21 18 30 34 32 25 27 30 21 23 28 32 30 29 25 22 15 18 17 18 19 20 17 21 20 18 18 22 29 33 33 39 40 40 37 32 34 38
54 49 48 39 20 13 20 28 31 25 23 26 20 20 18 22 26 28 29 29 24 15 12 15 17 18 20 20 17 17 17 19 28 32 32 32 35 36 34 35 31 35 39
51 51 44 27 11 12 21 24 27 19 23 20 15 21 17 19 21 19 22 22 21 18 20 18 15 12 11 14 15 17 19 22 29 30 31 32 30 32 33 32 30 32 34
Wind_Direction_850mb
213 217 223 262 273 258 239 233 231 237 249 266 294 311 315 309 314 316 318 320 322 325 320 317 316 314 309 306 298 292 295 290 283 280 281 285 294 296 297 275 265 253 248
227 224 233 254 265 262 245 238 245 249 261 283 296 307 302 306 315 317 316 318 322 321 318 317 317 316 314 312 300 289 291 291 278 275 282 303 304 314 261 303 223 194 208
242 239 234 252 261 265 247 248 252 261 273 281 290 298 299 303 309 309 311 317 318 316 315 317 317 318 319 317 298 285 281 279 277 280 276 295 290 299 315 267 244 249 240
242 243 242 248 260 267 257 255 260 266 270 278 289 289 298 304 309 310 316 318 314 314 316 317 316 321 322 317 308 288 275 279 280 278 280 279 266 290 305 316 221 271 233
239 242 245 252 258 262 262 266 262 267 273 283 282 293 299 307 307 312 314 312 309 309 314 313 311 308 314 306 296 280 270 271 268 266 270 269 270 267 268 282 303 246 229
233 240 243 252 256 256 252 270 268 268 277 277 292 300 304 306 309 310 305 304 308 309 307 307 308 315 315 300 293 279 271 264 275 276 274 271 266 267 265 257 269 264 258
227 240 245 254 260 262 261 260 268 270 276 288 296 301 303 307 310 304 305 310 311 314 315 317 321 324 319 309 293 283 277 278 275 275 273 271 269 261 255 259 258 258 239
231 239 244 250 259 262 261 266 266 277 287 294 296 299 307 313 309 305 311 313 316 321 332 326 322 315 309 307 299 291 281 280 280 276 274 270 265 255 244 244 255 253 239
222 234 242 249 249 263 265 263 270 280 287 292 300 309 315 315 310 316 316 317 324 325 322 318 311 306 306 307 297 289 291 295 282 276 274 273 269 254 244 241 241 237 231
227 234 237 242 253 259 260 267 277 287 296 304 310 316 320 316 319 319 317 328 325 317 318 314 311 309 314 315 311 305 299 295 291 286 281 280 263 254 244 240 233 229 223
229 237 236 246 251 259 269 280 288 297 305 312 319 324 324 323 321 318 321 316 315 317 317 318 320 319 322 318 308 309 302 294 292 287 283 278 259 252 247 235 240 225 220
229 232 239 250 257 274 275 284 295 308 315 320 323 327 326 323 323 318 316 313 315 320 322 323 325 330 325 323 320 312 314 304 293 277 284 269 256 252 246 242 233 229 217
231 218 223 265 278 283 280 290 297 311 319 321 325 327 324 324 320 320 317 315 320 317 320 325 326 334 322 322 324 308 311 310 290 305 302 292 279 262 247 239 243 222 202
217 202 268 282 281 278 278 283 298 311 317 321 323 323 323 322 321 323 320 318 321 322 327 326 327 333 322 321 313 332 320 310 315 322 316 315 290 276 248 229 206 202 183
211 241 282 288 284 278 277 286 299 311 315 319 322 323 325 322 317 315 317 322 321 321 327 328 328 334 338 328 322 342 24 357 348 353 352 349 5 160 88 156 175 193 170
227 275 298 288 290 280 277 282 298 311 316 322 324 325 327 321 315 316 324 325 328 326 329 329 330 350 340 358 15 84 6 17 9 9 40 92 102 72 41 139 175 179 158
259 287 299 294 293 286 280 289 305 312 319 323 325 326 327 319 317 324 327 327 332 332 338 335 339 3 348 348 110 69 31 36 30 52 71 100 93 87 115 130 132 150 171
289 302 307 303 296 287 283 292 304 317 324 323 328 330 322 319 325 332 335 343 346 342 341 349 60 22 1 55 109 72 52 57 72 72 89 85 80 90 108 113 132 133 125
320 318 312 308 305 292 289 290 307 320 324 329 336 332 324 328 332 337 339 338 349 346 1 83 75 53 70 88 93 87 86 92 75 76 98 95 95 96 105 126 123 132 140
345 348 350 345 324 299 289 296 313 325 333 338 340 332 333 333 337 342 344 345 342 24 76 99 95 78 75 77 92 95 84 91 83 78 103 108 102 105 109 136 147 135 147
334 340 342 343 331 301 289 297 321 333 340 343 341 339 338 344 346 346 359 358 12 87 102 94 91 86 79 84 95 83 70 99 89 96 105 113 109 103 113 128 144 151 144
345 341 336 332 312 287 282 305 330 341 346 347 347 344 351 358 351 7 16 20 34 97 97 94 100 89 83 87 90 86 81 79 89 90 98 109 102 101 110 122 133 148 146
339 338 336 326 303 288 294 323 338 349 354 355 347 351 10 1 11 29 28 35 45 83 79 100 108 94 88 91 92 79 76 75 92 89 92 104 99 105 106 110 120 138 146
339 333 330 319 304 288 308 326 346 354 2 355 355 15 13 22 34 40 41 56 76 70 87 103 108 97 98 91 80 77 72 76 98 97 95 94 105 107 109 111 110 137 148
338 334 327 320 299 297 320 335 354 1 0 2 17 26 28 36 47 51 49 52 66 75 87 107 102 105 96 101 90 82 72 81 105 105 106 107 110 113 114 115 117 130 138
340 334 328 327 304 312 326 346 360 3 4 5 35 30 42 47 52 62 54 66 62 67 93 98 89 105 112 95 83 92 100 106 110 116 114 112 108 110 123 124 121 124 137